[[{"header":{"parameterUnit":"m.s-1","parameterCategory":1,"la1":30.2991,"la2":30.254,"lo1":-89.0895,"lo2":-89.0444,"dy":0.0017,"dx":0.0017,"nx":28,"ny":28,"refTime":"2023-08-29T03:00:00:Z","depth":0,"parameterNumber":2,"parameterNumberName":"U-component_of_WINDS"},"data":[0,0,0,0,0,0,0,0,0,0,0,0,0,0,0,0,0,0,0,0,0,0,0,0,0,0,0,0,0,0,0,0,0,0,0,0,0,0,0,0,0,0,0,0,0,0,0,0,0,0,0,0,0,0,0,0,0,0,0.3539,0.3539,0,0.3558,0.3558,0.3558,0.3549,0.3548,0.3548,0.3547,0.3568,0.3569,0.357,0,0,0,0,0,0,0,0,0,0,0,0,0,0.3497,0.3498,0.3539,0.3539,0.354,0.3558,0.3558,0.3559,0.3549,0.3548,0.3548,0.3547,0.3567,0.3569,0.357,0,0,0,0,0,0,0,0,0,0,0,0,0,0.3515,0.3498,0.3539,0.3537,0.3537,0.3558,0.3558,0.3559,0.3549,0.3548,0.3547,0.3547,0.3567,0.3569,0.357,0.3595,0,0,0.3575,0.3575,0,0,0,0,0,0,0,0,0.3514,0.3517,0.3537,0.3537,0.3537,0.355,0.3551,0.3571,0.3549,0.3544,0.3547,0.3546,0.3563,0.3565,0.357,0.3596,0.3596,0.3575,0.3576,0.3576,0.3577,0,0,0,0,0,0,0,0.3513,0.3516,0.3547,0.3537,0.3537,0.3536,0.3538,0.3555,0.3558,0.3545,0.3544,0.3546,0.3563,0.3568,0.357,0.3597,0.3575,0.3576,0.3577,0.3578,0.3646,0.3647,0,0,0,0,0,0,0.3512,0.3515,0.3546,0.3547,0.3524,0.3537,0.3539,0.3547,0.3557,0.3558,0.3547,0.3546,0.3566,0.3568,0.3571,0.3602,0.3576,0.3578,0.3579,0.3645,0.3646,0.3647,0,0,0,0,0,0,0.3511,0.3514,0.3545,0.3531,0.3535,0.3539,0.3547,0.3548,0.3553,0.3559,0.356,0.3552,0.3566,0.3569,0.3589,0.3602,0.3579,0.358,0.3644,0.3645,0.3647,0.3663,0,0,0,0,0,0,0.351,0.3514,0.3523,0.3531,0.3536,0.3563,0.3548,0.3549,0.3556,0.3555,0.3564,0.3565,0.3565,0.3587,0.3591,0.3604,0.3581,0.3643,0.3645,0.3646,0.3661,0.3664,0.3667,0,0,0,0,0,0.3508,0.3526,0.3523,0.3527,0.3546,0.3563,0.3566,0.3565,0.3557,0.3566,0.357,0.3565,0.36,0.3589,0.3593,0.3607,0.3642,0.3644,0.3646,0.366,0.3664,0.3667,0,0,0,0,0,0,0.352,0.3527,0.3524,0.3546,0.3554,0.3562,0.3573,0.357,0.3581,0.3579,0.3578,0.3581,0.3602,0.3607,0.3594,0.3633,0.362,0.3623,0.3629,0.3633,0.3636,0.3635,0.3582,0,0,0,0,0,0.3525,0.3537,0.3543,0.3562,0.3566,0.3569,0.3576,0.3575,0.3584,0.3588,0.3593,0.3602,0.3616,0.3624,0.3637,0.3662,0.3665,0.3673,0.3676,0.3679,0.3682,0.3697,0.3702,0.3654,0.3654,0.3654,0,0,0.3535,0.3541,0.3549,0.3564,0.3571,0.3585,0.3572,0.3587,0.3598,0.359,0.361,0.3614,0.3625,0.3648,0.3658,0.3652,0.3696,0.3682,0.3684,0.3685,0.37,0.3704,0.3708,0.3655,0.3655,0.3655,0,0,0.3561,0.3567,0.3583,0.359,0.36,0.3602,0.3606,0.3615,0.3618,0.3637,0.3633,0.3646,0.3668,0.3676,0.3683,0.3715,0.3711,0.3719,0.3736,0.3751,0.3754,0.3758,0.377,0.3775,0.3722,0.3722,0.3722,0,0.3573,0.3593,0.3592,0.3608,0.3616,0.361,0.3628,0.3634,0.3648,0.3654,0.3647,0.3676,0.3682,0.3708,0.3716,0.3722,0.3727,0.3718,0.3754,0.3757,0.376,0.3772,0.3777,0.3723,0.3722,0.3722,0.3722,0,0.3608,0.3623,0.3635,0.3649,0.3658,0.3674,0.3677,0.3686,0.3685,0.3688,0.371,0.3717,0.3732,0.3738,0.3736,0.3764,0.376,0.3754,0.3741,0.3766,0.3777,0.3782,0.3724,0.3724,0.3723,0.3723,0,0,0.3642,0.3655,0.366,0.3667,0.3678,0.369,0.3707,0.3721,0.373,0.374,0.3755,0.3775,0.3769,0.3778,0.3777,0.379,0.3817,0.3782,0.3782,0.3789,0.385,0.3856,0.3861,0.3814,0.3815,0.3816,0.3849,0,0.367,0.3699,0.37,0.3727,0.3741,0.3737,0.3752,0.3761,0.3765,0.3778,0.3782,0.3797,0.3788,0.3793,0.3805,0.3811,0.3829,0.3808,0.3829,0.383,0.3828,0.3867,0.3872,0.3904,0.3854,0.3854,0.3855,0,0.3706,0.3718,0.3747,0.3758,0.3764,0.3777,0.3791,0.3803,0.3814,0.3816,0.3826,0.3825,0.3843,0.383,0.3857,0.3843,0.3852,0.3856,0.3857,0.386,0.3845,0.3871,0.3914,0.3919,0.3862,0.3861,0.3861,0,0.373,0.3752,0.3773,0.3779,0.3791,0.3801,0.3807,0.3817,0.3827,0.3839,0.3846,0.386,0.3869,0.3881,0.3884,0.3873,0.3911,0.3897,0.3914,0.3915,0.3923,0.3923,0.3969,0.3927,0.3927,0.3927,0.3927,0,0.3761,0.378,0.3784,0.3797,0.3818,0.3818,0.3839,0.3844,0.3854,0.3869,0.3865,0.3879,0.3882,0.3897,0.3899,0.3922,0.3925,0.3929,0.3929,0.393,0.3929,0.3936,0.3934,0.3928,0.3928,0.3928,0.3927,0,0.3791,0.3794,0.3817,0.3827,0.383,0.3846,0.3855,0.3868,0.3872,0.3891,0.3895,0.3902,0.3919,0.3923,0.3944,0.3946,0.3974,0.3971,0.397,0.397,0.3987,0.3986,0.404,0.4048,0.4,0.4,0.4001,0,0.3811,0.3825,0.3838,0.3847,0.3854,0.3869,0.3879,0.3881,0.3891,0.3906,0.3917,0.3934,0.3948,0.3977,0.3984,0.4001,0.4,0.4018,0.4002,0.4003,0.4002,0.4001,0.4004,0.4021,0.4021,0.4022,0.4022,0,0.3848,0.3849,0.3863,0.3878,0.389,0.3902,0.3913,0.3921,0.3925,0.3937,0.3955,0.3966,0.3988,0.4006,0.4023,0.403,0.4027,0.4027,0.4032,0.4033,0.4032,0.4034,0.3979,0.4026,0.4025,0.4025,0.4025,0.4025,0.3874,0.3887,0.3899,0.3915,0.3924,0.3935,0.3948,0.3954,0.3969,0.3987,0.3987,0.4007,0.402,0.4042,0.405,0.4067,0.4062,0.4069,0.4071,0.4073,0.4075,0.4028,0.407,0.407,0.407,0.407,0.407,0,0.3912,0.3919,0.3934,0.395,0.3964,0.396,0.3973,0.3984,0.4002,0.4013,0.4027,0.4049,0.4067,0.4076,0.4094,0.4106,0.4105,0.411,0.411,0.4112,0.4078,0.4072,0.4111,0.4111,0.4111,0.4111,0.4111,0.4111,0.3933,0.3956,0.3959,0.3986,0.3993,0.4013,0.4021,0.4032,0.4041,0.4066,0.408,0.4086,0.4097,0.4116,0.4133,0.4135,0.4143,0.4149,0.4151,0.4119,0.4114,0.411,0.4105,0.415,0.415,0.4184,0.4184,0.4185]},{"header":{"parameterUnit":"m.s-1","parameterCategory":1,"la1":30.2991,"la2":30.254,"lo1":-89.0895,"lo2":-89.0444,"dy":0.0017,"dx":0.0017,"nx":28,"ny":28,"refTime":"2023-08-29T03:00:00:Z","depth":0,"parameterNumber":3,"parameterNumberName":"V-component_of_WINDS"},"data":[0,0,0,0,0,0,0,0,0,0,0,0,0,0,0,0,0,0,0,0,0,0,0,0,0,0,0,0,0,0,0,0,0,0,0,0,0,0,0,0,0,0,0,0,0,0,0,0,0,0,0,0,0,0,0,0,0,0,-5.8149,-5.815,0,-5.8225,-5.8226,-5.8226,-5.8222,-5.8221,-5.822,-5.8219,-5.829,-5.8293,-5.8296,0,0,0,0,0,0,0,0,0,0,0,0,0,-5.7998,-5.8001,-5.8149,-5.815,-5.8151,-5.8225,-5.8226,-5.8227,-5.8222,-5.8221,-5.8219,-5.8218,-5.8289,-5.8293,-5.8296,0,0,0,0,0,0,0,0,0,0,0,0,0,-5.8067,-5.8002,-5.8149,-5.8158,-5.8159,-5.8224,-5.8226,-5.8227,-5.8222,-5.8221,-5.8219,-5.8218,-5.8288,-5.8292,-5.8297,-5.8356,0,0,-5.831,-5.8312,0,0,0,0,0,0,0,0,-5.8064,-5.8073,-5.8156,-5.8157,-5.8159,-5.8212,-5.8199,-5.827,-5.8223,-5.8198,-5.8219,-5.8217,-5.8265,-5.8271,-5.8289,-5.8359,-5.8362,-5.831,-5.8313,-5.8315,-5.8316,0,0,0,0,0,0,0,-5.8059,-5.807,-5.8179,-5.8157,-5.8159,-5.8157,-5.8165,-5.8212,-5.824,-5.82,-5.82,-5.8209,-5.8266,-5.8285,-5.8291,-5.8364,-5.831,-5.8314,-5.8317,-5.8319,-5.849,-5.8491,0,0,0,0,0,0,-5.8053,-5.8066,-5.8177,-5.8181,-5.8107,-5.8161,-5.817,-5.8197,-5.8239,-5.8244,-5.8211,-5.8209,-5.8278,-5.8285,-5.8293,-5.8368,-5.8315,-5.8319,-5.8321,-5.8488,-5.849,-5.8492,0,0,0,0,0,0,-5.8049,-5.8063,-5.8174,-5.8124,-5.8138,-5.8165,-5.8196,-5.8199,-5.8218,-5.8247,-5.8252,-5.8225,-5.8277,-5.8287,-5.8342,-5.837,-5.8321,-5.8325,-5.8485,-5.8488,-5.8491,-5.8516,0,0,0,0,0,0,-5.8045,-5.8061,-5.8085,-5.8124,-5.814,-5.8222,-5.8197,-5.8202,-5.8226,-5.8225,-5.8262,-5.8267,-5.8277,-5.8335,-5.8346,-5.8375,-5.8328,-5.8483,-5.8487,-5.849,-5.8513,-5.8519,-5.8525,0,0,0,0,0,-5.804,-5.8087,-5.8086,-5.8099,-5.817,-5.8223,-5.8232,-5.8245,-5.8229,-5.8252,-5.8272,-5.8265,-5.8365,-5.8341,-5.8353,-5.8384,-5.8481,-5.8486,-5.849,-5.851,-5.8518,-5.8525,0,0,0,0,0,0,-5.8047,-5.8092,-5.8092,-5.8153,-5.8185,-5.8223,-5.8253,-5.8252,-5.8288,-5.8284,-5.8296,-5.8305,-5.836,-5.8377,-5.8349,-5.8445,-5.8421,-5.8428,-5.8432,-5.844,-5.8446,-5.8441,-5.8332,0,0,0,0,0,-5.8056,-5.8097,-5.8134,-5.8184,-5.8201,-5.8224,-5.8247,-5.8255,-5.8287,-5.83,-5.8323,-5.8353,-5.8392,-5.8416,-5.8453,-5.8515,-5.8524,-5.8542,-5.8549,-5.8553,-5.8559,-5.8596,-5.8605,-5.8506,-5.8506,-5.8506,0,0,-5.8075,-5.8105,-5.8129,-5.8187,-5.8212,-5.8254,-5.8235,-5.8279,-5.831,-5.8306,-5.836,-5.8378,-5.8413,-5.8472,-5.8499,-5.8488,-5.8589,-5.8559,-5.8563,-5.8566,-5.8601,-5.861,-5.8619,-5.8509,-5.8509,-5.8508,0,0,-5.813,-5.8156,-5.8203,-5.823,-5.827,-5.8286,-5.8297,-5.8336,-5.8349,-5.8404,-5.8403,-5.8439,-5.8504,-5.853,-5.8552,-5.8621,-5.8617,-5.8632,-5.8664,-5.87,-5.8707,-5.8714,-5.8741,-5.875,-5.8638,-5.8638,-5.8638,0,-5.8148,-5.8212,-5.8226,-5.8272,-5.8298,-5.83,-5.8347,-5.8372,-5.8421,-5.8438,-5.8425,-5.851,-5.8533,-5.86,-5.8617,-5.8634,-5.8648,-5.8628,-5.8705,-5.8713,-5.8719,-5.8744,-5.8754,-5.864,-5.864,-5.864,-5.8639,0,-5.8232,-5.8277,-5.8309,-5.8361,-5.839,-5.8436,-5.8457,-5.8485,-5.8491,-5.8508,-5.8565,-5.8593,-5.8637,-5.8654,-5.8657,-5.8722,-5.8714,-5.8703,-5.8679,-5.873,-5.8754,-5.8764,-5.8642,-5.8642,-5.8641,-5.8641,0,0,-5.8292,-5.8354,-5.8366,-5.8391,-5.8436,-5.847,-5.8517,-5.8563,-5.8587,-5.8621,-5.8661,-5.8718,-5.871,-5.8734,-5.8742,-5.8772,-5.8828,-5.8758,-5.8759,-5.8772,-5.8903,-5.8911,-5.8922,-5.8826,-5.8828,-5.8829,-5.89,0,-5.8354,-5.8439,-5.8455,-5.8529,-5.8571,-5.8575,-5.8616,-5.8648,-5.8666,-5.8703,-5.8722,-5.8763,-5.8748,-5.8764,-5.8794,-5.8815,-5.8855,-5.881,-5.8863,-5.8865,-5.8855,-5.8934,-5.8943,-5.9008,-5.8909,-5.8911,-5.8912,0,-5.8436,-5.8477,-5.8556,-5.8599,-5.8617,-5.8654,-5.8699,-5.8735,-5.8772,-5.8782,-5.8812,-5.8817,-5.8865,-5.884,-5.8907,-5.8876,-5.8899,-5.8912,-5.8915,-5.8921,-5.8892,-5.8943,-5.9029,-5.9039,-5.8927,-5.8925,-5.8924,0,-5.8475,-5.8548,-5.8606,-5.8627,-5.8678,-5.8704,-5.8726,-5.8762,-5.8789,-5.8828,-5.8846,-5.8888,-5.8912,-5.8945,-5.8961,-5.894,-5.9027,-5.9002,-5.9038,-5.9038,-5.9056,-5.9055,-5.9148,-5.9069,-5.9069,-5.9069,-5.9069,0,-5.8542,-5.8591,-5.8625,-5.866,-5.8715,-5.8733,-5.8786,-5.8808,-5.884,-5.888,-5.8884,-5.892,-5.8939,-5.8978,-5.8991,-5.9046,-5.9056,-5.9066,-5.9069,-5.9066,-5.9065,-5.9081,-5.9078,-5.9071,-5.9071,-5.907,-5.907,0,-5.8594,-5.8619,-5.8682,-5.8727,-5.874,-5.8778,-5.8816,-5.8851,-5.887,-5.8919,-5.8932,-5.8961,-5.9008,-5.9028,-5.9083,-5.9092,-5.9156,-5.9154,-5.9144,-5.9145,-5.918,-5.9177,-5.9288,-5.9304,-5.9214,-5.9214,-5.9215,0,-5.8636,-5.8674,-5.8724,-5.8753,-5.8777,-5.8821,-5.8851,-5.887,-5.89,-5.8947,-5.8976,-5.9024,-5.9063,-5.9137,-5.9162,-5.9206,-5.9207,-5.9243,-5.9213,-5.921,-5.9209,-5.9207,-5.9212,-5.9248,-5.9249,-5.9249,-5.925,0,-5.8708,-5.8719,-5.8762,-5.8811,-5.8847,-5.8885,-5.8922,-5.8944,-5.897,-5.9003,-5.9053,-5.9084,-5.9144,-5.9191,-5.9237,-5.9258,-5.9259,-5.926,-5.927,-5.9268,-5.9262,-5.9268,-5.916,-5.9257,-5.9256,-5.9256,-5.9255,-5.9255,-5.8757,-5.8792,-5.8835,-5.8883,-5.8914,-5.895,-5.8986,-5.9011,-5.9053,-5.9105,-5.9114,-5.9167,-5.9205,-5.9267,-5.9291,-5.9333,-5.9323,-5.9338,-5.9342,-5.9346,-5.935,-5.9255,-5.9341,-5.934,-5.934,-5.934,-5.934,0,-5.8831,-5.8859,-5.8904,-5.8958,-5.8997,-5.8997,-5.9039,-5.9071,-5.9119,-5.9155,-5.9195,-5.9253,-5.93,-5.933,-5.9377,-5.9405,-5.9406,-5.9416,-5.9415,-5.942,-5.9354,-5.9341,-5.9415,-5.9415,-5.9415,-5.9415,-5.9415,-5.9415,-5.8874,-5.8935,-5.8952,-5.9028,-5.9055,-5.911,-5.9134,-5.9167,-5.9197,-5.9263,-5.9303,-5.9324,-5.9358,-5.9408,-5.9451,-5.9459,-5.9476,-5.9488,-5.9495,-5.9432,-5.9425,-5.9417,-5.9405,-5.9491,-5.9491,-5.9558,-5.9558,-5.9559]}]]